Regional Weather Roundup
Issued by NWS

Home | Current Version | Previous Version | Text Only | Print | Product List | Glossary Off
Versions: 1 2 3 4 5 6 7 8 9 10 11 12 13 14 15 16 17 18 19 20 21 22 23 24 25 26 27 28 29 30 31 32 33 34 35 36 37 38 39 40 41 42 43 44 45 46 47 48 49 50

000
ASUS43 KFSD 220810
RWRSD

WEATHER ROUNDUP FOR SOUTH DAKOTA
NATIONAL WEATHER SERVICE SIOUX FALLS SD
300 AM CDT WED OCT 22 2014

NOTE: "FAIR" INDICATES FEW OR NO CLOUDS BELOW 12,000 FEET WITH NO
SIGNIFICANT WEATHER AND/OR OBSTRUCTIONS TO VISIBILITY.


SDZ001>005-009-010-012>017-220900-
NORTHWEST AND NORTH CENTRAL SOUTH DAKOTA

CITY           SKY/WX    TMP DP  RH WIND       PRES   REMARKS
BUFFALO          N/A     53  39  59 W18       29.74R
FAITH            N/A     59  47  64 W6        29.78R
MOBRIDGE       MOCLDY    63  51  65 SE12      29.71R
$$

SDZ012>016-024>037-041>051-057-063-072>074-220900-
SOUTHWEST AND SOUTH CENTRAL SOUTH DAKOTA

CITY           SKY/WX    TMP DP  RH WIND       PRES   REMARKS
RAPID CTY ARPT CLOUDY    63  42  46 N14       29.82R
PIERRE         MOCLDY    61  52  72 SE10      29.76S
CUSTER         MOCLDY    53  34  48 SW7       29.92S
ELLSWORTH AFB  PTCLDY    64  43  46 N29G35    29.82R
PHILIP         CLOUDY    67  50  54 W10       29.74F
PINE RIDGE     CLOUDY    58  47  66 W5        29.86R
SPEARFISH      FAIR      54  39  58 W7        29.90R
WINNER         FAIR      65  54  67 S25G33    29.80F
$$

SDZ004>011-016>023-039-040-220900-
NORTHEAST SOUTH DAKOTA

CITY           SKY/WX    TMP DP  RH WIND       PRES   REMARKS
ABERDEEN       CLEAR     62  39  42 S23G35    29.83S
WATERTOWN      CLEAR     53  42  66 S18G29    29.94S
SISSETON         N/A     51  42  71 S14       29.92S
$$

SDZ017-020-022-023-036>040-048>070-220900-
SOUTHEAST SOUTH DAKOTA

CITY           SKY/WX    TMP DP  RH WIND       PRES   REMARKS
SIOUX FALLS    CLEAR     53  44  71 SE18      30.02R
HURON          CLEAR     57  39  51 SE17G29   29.87F
CHAMBERLAIN    PTCLDY    59  46  61 SE12G21   29.83F
MITCHELL       CLEAR     60  39  45 SE21      29.91S
YANKTON        CLEAR     55  39  54 SE15      29.99R
$$

ABBREVIATIONS USED IN REMARKS
   TC - TEMPERATURE IN CELSIUS
  WCI - WIND CHILL INDEX
   HX - HEAT INDEX
  VSB - VISIBILITY




USA.gov is the U.S. government's official web portal to all federal, state and local government web resources and services.